EW9451 Weather Reports


time (UTC)temp
F
wind
direction
speed
knots
gust
knots
rain 1hr
in
rain 24hr
in
rain mn
in
humidity
%
barometer
mb
20260507161549 49 325 6.1 11.3 0.00 0.21 0.00 53 1002.7
20260507161042 49 323 5.2 11.3 0.00 0.21 0.00 56 1002.9
20260507160542 49 323 5.2 11.3 0.00 0.33 0.00 61 1002.9
20260507160059 49 325 5.2 11.3 0.00 0.33 0.00 61 1002.9
20260507155538 48 306 4.3 11.3 0.00 0.33 0.00 56 1002.9
20260507155040 48 342 4.3 8.7 0.00 0.33 0.00 56 1002.9
20260507154538 48 285 3.5 12.2 0.00 0.33 0.00 55 1003.0
20260507154037 48 342 5.2 12.2 0.00 0.33 0.00 60 1003.0
20260507153537 47 311 2.6 12.2 0.00 0.33 0.00 58 1002.9
20260507153037 48 276 6.1 13.9 0.00 0.33 0.00 58 1003.0
20260507152537 47 324 6.1 13.9 0.00 0.33 0.00 60 1003.1
20260507152036 47 310 5.2 11.3 0.00 0.33 0.00 60 1003.2
20260507151534 47 302 5.2 11.3 0.00 0.33 0.00 57 1003.2
20260507151034 47 313 4.3 9.6 0.00 0.33 0.00 68 1003.3
20260507150536 46 326 4.3 13.0 0.00 0.40 0.00 63 1003.2
20260507150034 46 315 3.5 13.0 0.00 0.40 0.00 61 1003.2
20260507145533 45 239 7.0 13.0 0.00 0.40 0.00 59 1003.0
20260507145033 46 321 5.2 13.0 0.00 0.40 0.00 59 1003.1
20260507144544 47 310 5.2 11.3 0.00 0.40 0.00 66 1003.0
20260507144036 46 313 3.5 11.3 0.00 0.40 0.00 66 1003.2
20260507143530 46 259 4.3 11.3 0.00 0.40 0.00 64 1003.1
20260507143033 46 280 2.6 11.3 0.00 0.40 0.00 67 1003.2
20260507142530 46 323 3.5 10.4 0.00 0.40 0.00 69 1003.2
20260507142027 45 315 5.2 11.3 0.00 0.40 0.00 67 1003.2
20260507141529 45 328 6.1 11.3 0.00 0.40 0.00 76 1003.0
20260507141027 44 341 3.5 13.9 0.00 0.40 0.00 69 1003.2
20260507140526 44 360 4.3 13.9 0.00 0.41 0.00 69 1003.1
20260507140027 44 324 1.7 7.8 0.00 0.41 0.00 72 1003.3
20260507135523 44 351 2.6 8.7 0.00 0.41 0.00 71 1003.3
20260507135023 44 360 3.5 8.7 0.00 0.41 0.00 69 1003.4
20260507134523 44 311 1.7 8.7 0.00 0.41 0.00 74 1003.3
20260507134024 43 240 3.5 11.3 0.00 0.41 0.00 73 1003.2
20260507133521 42 282 4.3 11.3 0.00 0.41 0.00 73 1003.3
20260507133021 42 296 6.1 13.9 0.00 0.41 0.00 76 1003.3
20260507132519 42 319 6.1 13.9 0.00 0.41 0.00 72 1003.4
20260507132018 42 265 7.0 13.0 0.00 0.41 0.00 76 1003.2
20260507131517 43 315 4.3 10.4 0.00 0.41 0.00 85 1003.2
20260507131018 42 281 4.3 10.4 0.00 0.41 0.00 82 1003.1
20260507130516 42 360 2.6 12.2 0.00 0.46 0.00 79 1003.1
20260507130027 42 292 3.5 12.2 0.00 0.46 0.00 86 1003.2
20260507125513 42 194 4.3 12.2 0.00 0.46 0.00 83 1003.3
20260507125012 42 346 5.2 12.2 0.00 0.46 0.00 84 1003.1
20260507124516 42 348 4.3 8.7 0.00 0.46 0.00 86 1003.2
20260507124010 41 342 0.9 5.2 0.00 0.46 0.00 89 1003.1
20260507123511 41 305 1.7 7.0 0.00 0.46 0.00 89 1003.2
20260507123009 41 319 2.6 7.0 0.00 0.46 0.00 90 1003.2
20260507122507 41 317 2.6 10.4 0.00 0.46 0.00 90 1003.2
20260507122008 41 316 3.5 10.4 0.00 0.46 0.00 91 1003.3
20260507121508 40 302 2.6 7.0 0.00 0.46 0.00 93 1003.1
20260507121006 40 302 0.0 4.3 0.00 0.46 0.00 95 1003.2
20260507120505 40 321 1.7 7.8 0.00 0.52 0.00 94 1003.1
20260507120011 40 298 3.5 7.8 0.00 0.52 0.00 95 1003.1
20260507115506 41 307 1.7 5.2 0.00 0.52 0.00 97 1003.1
20260507115006 41 322 1.7 5.2 0.00 0.52 0.00 97 1003.0
20260507114503 40 339 2.6 5.2 0.00 0.52 0.00 97 1002.8
20260507114003 40 148 0.0 2.6 0.00 0.52 0.00 97 1002.7
20260507113504 40 296 1.7 4.3 0.00 0.52 0.00 97 1002.7
20260507113004 41 292 1.7 5.2 0.00 0.52 0.00 98 1002.6
20260507112505 41 193 0.0 6.1 0.00 0.52 0.00 98 1002.5
20260507112005 41 44 1.7 6.1 0.00 0.52 0.00 98 1002.7
20260507111507 41 336 0.9 4.3 0.00 0.52 0.00 98 1002.7
20260507111001 41 334 1.7 4.3 0.00 0.52 0.00 98 1002.8
20260507110501 41 180 0.0 6.1 0.00 0.54 0.00 98 1002.7
20260507110002 41 252 0.9 6.1 0.00 0.54 0.00 98 1002.8
20260507105600 40 263 2.6 5.2 0.00 0.54 0.00 98 1002.7
20260507105100 40 174 0.0 2.6 0.00 0.54 0.00 98 1002.6
20260507104602 40 213 0.0 1.7 0.00 0.54 0.00 98 1002.5
20260507104100 40 309 0.0 1.7 0.00 0.54 0.00 98 1002.4
20260507103602 40 194 0.0 1.7 0.00 0.54 0.00 98 1002.3
20260507103059 40 192 0.0 1.7 0.00 0.54 0.00 98 1002.2
20260507102600 40 203 0.0 1.7 0.00 0.54 0.00 98 1002.1
20260507102058 40 203 0.0 1.7 0.00 0.54 0.00 98 1002.2
20260507101634 40 203 0.0 1.7 0.00 0.54 0.00 98 1002.2
20260507101058 40 203 0.0 0.9 0.00 0.54 0.00 98 1002.2
20260507100558 40 203 0.0 0.9 0.00 0.54 0.00 98 1002.3
20260507100100 40 203 0.0 0.0 0.00 0.57 0.00 98 1002.3
20260507095557 40 203 0.0 0.0 0.00 0.57 0.00 98 1002.3
20260507095056 40 203 0.0 0.0 0.00 0.57 0.00 98 1002.2
20260507094557 40 203 0.0 0.9 0.00 0.57 0.00 98 1002.3
20260507094057 40 203 0.0 0.9 0.00 0.57 0.00 98 1002.2
20260507093557 40 203 0.0 0.9 0.00 0.57 0.00 98 1002.1
20260507093059 40 203 0.0 0.9 0.00 0.57 0.00 98 1002.1
20260507092556 40 203 0.0 0.0 0.00 0.57 0.00 98 1002.0
20260507092058 40 203 0.0 0.9 0.00 0.57 0.00 98 1002.1
20260507091556 40 203 0.0 0.9 0.00 0.57 0.00 98 1002.1
20260507091055 40 203 0.0 0.9 0.00 0.57 0.00 98 1002.1
20260507090555 40 203 0.0 0.9 0.00 0.57 0.00 98 1002.2
20260507090106 40 203 0.0 1.7 0.00 0.60 0.00 98 1002.1
20260507085555 40 203 0.0 1.7 0.00 0.60 0.00 98 1002.1
20260507085054 39 143 0.0 2.6 0.00 0.60 0.00 98 1002.1
20260507084555 39 142 0.9 2.6 0.00 0.60 0.00 98 1002.1
20260507084053 39 136 0.0 2.6 0.00 0.60 0.00 98 1002.1
20260507083554 39 136 0.9 2.6 0.00 0.60 0.00 98 1002.1
20260507083054 39 157 0.0 1.7 0.00 0.60 0.00 98 1002.3
20260507082556 39 157 0.0 1.7 0.00 0.60 0.00 98 1002.5
20260507082055 39 157 0.0 1.7 0.00 0.60 0.00 98 1002.5
20260507081553 39 157 0.0 1.7 0.00 0.60 0.00 98 1002.5
20260507081055 39 157 0.0 1.7 0.00 0.60 0.00 98 1002.5
20260507080553 39 155 0.0 2.6 0.00 0.60 0.00 97 1002.5
20260507080052 39 155 0.9 2.6 0.00 0.66 0.00 97 1002.6
20260507075554 39 117 0.0 1.7 0.00 0.66 0.00 97 1002.6
20260507075050 39 146 0.9 2.6 0.00 0.66 0.00 97 1002.6
20260507074555 39 132 0.9 2.6 0.00 0.66 0.00 97 1002.7
20260507074048 39 132 0.9 1.7 0.00 0.66 0.00 97 1002.7
20260507073548 39 132 0.0 1.7 0.00 0.66 0.00 97 1002.8
20260507073048 39 132 0.9 2.6 0.00 0.66 0.00 97 1002.8
20260507072548 39 132 0.0 2.6 0.00 0.66 0.00 97 1002.7
20260507072047 39 248 0.0 1.7 0.00 0.66 0.00 97 1002.6
20260507071547 39 283 0.0 0.9 0.00 0.66 0.00 97 1002.4
20260507071047 39 283 0.0 1.7 0.00 0.66 0.00 97 1002.4
20260507070546 39 282 0.0 1.7 0.00 0.66 0.00 97 1002.4
20260507070050 39 282 0.0 1.7 0.00 0.73 0.00 97 1002.3
20260507065545 39 280 0.0 1.7 0.00 0.73 0.00 97 1002.2
20260507065045 39 134 0.0 3.5 0.00 0.73 0.00 97 1002.1
20260507064603 38 134 0.9 3.5 0.00 0.73 0.00 97 1002.1
20260507064044 38 270 0.9 2.6 0.00 0.73 0.00 97 1002.2
20260507063543 38 169 0.0 2.6 0.00 0.73 0.00 97 1002.1
20260507063047 38 103 0.9 1.7 0.00 0.73 0.00 97 1002.1
20260507062544 38 323 0.0 0.9 0.00 0.73 0.00 97 1002.0
20260507062142 38 323 0.0 0.9 0.00 0.73 0.00 97 1002.1
20260507061542 38 323 0.0 1.7 0.00 0.73 0.00 97 1002.3
20260507061041 38 323 0.0 1.7 0.00 0.73 0.00 97 1002.4
20260507060541 38 323 0.9 1.7 0.00 0.77 0.00 97 1002.4
20260507060040 38 323 0.0 0.9 0.00 0.77 0.00 97 1002.3
20260507055639 39 323 0.0 1.7 0.00 0.77 0.00 97 1002.5
20260507055038 38 323 0.0 1.7 0.00 0.77 0.00 97 1002.4
20260507054541 38 323 0.0 1.7 0.00 0.77 0.00 97 1002.4
20260507054042 38 323 0.0 1.7 0.00 0.77 0.00 97 1002.4
20260507053537 38 323 0.0 1.7 0.00 0.77 0.00 97 1002.3
20260507053037 38 323 0.0 0.0 0.00 0.77 0.00 97 1002.5
20260507052538 38 323 0.0 0.9 0.00 0.77 0.00 96 1002.6
20260507052035 38 323 0.0 0.9 0.00 0.77 0.00 96 1002.6
20260507051535 39 323 0.0 0.0 0.00 0.77 0.00 96 1002.6
20260507051034 39 323 0.0 0.9 0.00 0.77 0.00 96 1002.7
20260507050532 39 323 0.0 0.9 0.00 0.81 0.00 96 1002.7
20260507050038 39 323 0.9 0.9 0.00 0.81 0.00 96 1003.0
20260507045532 39 323 0.0 0.9 0.00 0.81 0.00 96 1003.0
20260507045029 39 323 0.0 0.9 0.00 0.81 0.00 96 1003.1
20260507044528 39 323 0.0 0.9 0.00 0.81 0.00 96 1003.0
20260507044027 40 323 0.0 0.9 0.00 0.81 0.00 96 1003.0
20260507043526 40 323 0.0 0.0 0.00 0.81 0.00 96 1003.0
20260507043026 40 323 0.0 0.0 0.00 0.81 0.00 96 1003.1
20260507042525 40 323 0.0 0.9 0.00 0.81 0.00 96 1003.1
20260507042025 40 323 0.0 0.9 0.00 0.81 0.00 96 1003.0
20260507041539 40 323 0.0 0.0 0.00 0.81 0.00 97 1003.1
20260507041024 40 323 0.0 0.0 0.00 0.81 0.00 97 1003.0
20260507040527 40 323 0.0 0.0 0.00 0.89 0.81 96 1003.1
20260507040023 40 323 0.0 0.0 0.00 0.89 0.81 96 1003.0
20260507035522 40 323 0.0 0.0 0.00 0.89 0.81 96 1003.1
20260507035022 40 323 0.0 0.0 0.00 0.89 0.81 96 1003.2
20260507034520 40 323 0.0 0.0 0.00 0.89 0.81 96 1002.9
20260507034020 41 323 0.0 0.0 0.00 0.89 0.81 96 1003.1
20260507033519 41 323 0.0 0.0 0.00 0.89 0.81 96 1003.0
20260507033019 41 323 0.0 0.0 0.00 0.89 0.81 96 1003.1
20260507032517 41 323 0.0 0.0 0.00 0.89 0.81 96 1003.2
20260507032019 41 323 0.0 0.0 0.00 0.89 0.81 96 1003.2
20260507031517 41 323 0.0 0.0 0.00 0.89 0.81 96 1003.3
20260507031017 41 323 0.0 0.0 0.00 0.89 0.81 96 1003.3
20260507030516 41 323 0.0 0.0 0.00 0.90 0.81 96 1003.3
20260507030017 42 323 0.0 0.0 0.00 0.90 0.81 96 1003.3
20260507025522 42 323 0.0 0.0 0.00 0.90 0.81 97 1003.3
20260507025015 42 323 0.0 0.0 0.00 0.90 0.81 96 1003.3
20260507024515 42 323 0.0 0.0 0.00 0.90 0.81 97 1003.3
20260507024019 42 323 0.0 0.0 0.00 0.90 0.81 97 1003.2
20260507023514 42 323 0.0 0.0 0.00 0.90 0.81 97 1003.3
20260507023015 42 323 0.0 1.7 0.00 0.90 0.81 97 1003.3
20260507022514 42 323 0.0 1.7 0.00 0.90 0.81 97 1003.2
20260507022014 42 323 0.0 1.7 0.00 0.90 0.81 97 1003.1
20260507021514 42 323 0.0 1.7 0.00 0.90 0.81 97 1003.2
20260507021013 42 323 0.0 0.9 0.00 0.90 0.81 97 1003.2
20260507020514 42 323 0.0 0.9 0.00 0.94 0.81 97 1003.0
20260507020014 42 323 0.0 0.9 0.00 0.94 0.81 97 1002.9
20260507015513 42 323 0.0 0.9 0.00 0.94 0.81 97 1003.2
20260507015013 42 323 0.0 0.9 0.00 0.94 0.81 97 1003.3
20260507014524 42 323 0.0 1.7 0.00 0.94 0.81 97 1003.5
20260507014012 42 323 0.9 1.7 0.00 0.94 0.81 97 1003.4
20260507013512 42 333 0.0 0.9 0.00 0.94 0.81 97 1003.0
20260507013030 42 333 0.0 0.9 0.00 0.94 0.81 97 1003.2
20260507012515 42 317 0.0 1.7 0.00 0.94 0.81 97 1003.4
20260507012016 42 317 0.0 1.7 0.00 0.94 0.81 97 1003.4
20260507011526 42 317 0.9 1.7 0.00 0.94 0.81 97 1003.5
20260507011011 42 317 0.0 1.7 0.00 0.94 0.81 97 1003.3
20260507010511 42 317 0.0 1.7 0.01 0.94 0.81 96 1003.2
20260507010011 42 317 0.0 1.7 0.01 0.94 0.81 96 1003.2
20260507005511 42 301 0.0 1.7 0.01 0.94 0.81 96 1003.1
20260507005010 42 301 0.0 1.7 0.01 0.94 0.81 96 1003.1
20260507004513 42 301 0.0 1.7 0.01 0.94 0.81 96 1003.1
20260507004010 42 290 0.0 1.7 0.01 0.94 0.81 97 1003.0
20260507003510 42 298 0.0 0.9 0.01 0.94 0.81 97 1003.0
20260507003009 42 298 0.0 0.9 0.01 0.94 0.81 96 1003.0
20260507002510 42 298 0.0 0.0 0.01 0.94 0.81 96 1002.9
20260507002009 42 298 0.0 0.0 0.01 0.94 0.81 96 1002.8
20260507001509 42 298 0.0 1.7 0.01 0.94 0.81 96 1002.7
20260507001010 42 298 0.0 1.7 0.00 0.93 0.80 96 1002.6
20260507000516 42 298 0.9 2.6 0.01 0.93 0.80 96 1002.5
20260507000020 42 5 0.0 2.6 0.01 0.93 0.80 96 1002.4
20260506235508 42 296 0.0 1.7 0.01 0.93 0.80 96 1002.2
20260506235009 42 296 0.0 1.7 0.01 0.93 0.80 96 1002.2
20260506234508 42 296 0.0 1.7 0.01 0.93 0.80 96 1002.1
20260506234007 42 308 0.0 1.7 0.01 0.93 0.80 96 1002.1
20260506233509 42 308 0.9 2.6 0.01 0.93 0.80 96 1002.1
20260506233008 42 308 0.9 2.6 0.01 0.93 0.80 96 1002.0
20260506232507 42 293 0.9 2.6 0.01 0.93 0.80 96 1002.0
20260506232007 42 310 0.9 2.6 0.01 0.93 0.80 96 1001.9
20260506231507 42 346 0.0 1.7 0.01 0.93 0.80 96 1001.8
20260506231007 42 38 0.0 1.7 0.01 0.93 0.80 96 1001.7
20260506230506 42 29 0.0 2.6 0.00 0.92 0.79 96 1001.8
20260506230006 42 69 0.0 2.6 0.00 0.92 0.79 96 1001.7
20260506225509 43 344 0.0 0.9 0.00 0.92 0.79 96 1001.9
20260506225006 42 326 0.0 1.7 0.00 0.92 0.79 96 1002.0
20260506224506 42 325 0.0 1.7 0.00 0.92 0.79 96 1002.0
20260506224006 42 355 0.0 0.9 0.00 0.92 0.79 96 1002.0
20260506223505 42 355 0.0 1.7 0.00 0.92 0.79 96 1001.9
20260506223006 42 355 0.0 1.7 0.00 0.92 0.79 96 1001.8
20260506222506 42 336 0.0 1.7 0.00 0.92 0.79 96 1001.8
20260506222006 42 331 0.9 4.3 0.00 0.92 0.79 96 1001.9
20260506221507 42 325 0.0 4.3 0.00 0.92 0.79 96 1001.9
20260506221007 42 275 0.9 4.3 0.00 0.92 0.79 96 1002.1
20260506220505 42 306 1.7 3.5 0.00 0.92 0.79 96 1002.0
20260506220007 43 355 0.9 4.3 0.01 0.92 0.79 96 1001.8
20260506215503 43 303 1.7 4.3 0.01 0.92 0.79 96 1001.9
20260506215006 43 323 0.9 2.6 0.01 0.92 0.79 96 1001.9
20260506214503 43 292 0.0 3.5 0.02 0.92 0.79 96 1001.7
20260506214002 43 30 0.0 5.2 0.02 0.92 0.79 96 1001.7
20260506213502 43 290 0.9 5.2 0.02 0.92 0.79 96 1001.8
20260506213003 43 321 0.9 2.6 0.03 0.92 0.79 96 1001.7
20260506212506 43 188 0.0 4.3 0.03 0.92 0.79 96 1001.5
20260506212004 43 351 0.9 4.3 0.04 0.92 0.79 96 1001.5
20260506211502 43 329 0.0 2.6 0.04 0.92 0.79 96 1001.4
20260506211003 43 276 0.0 2.6 0.04 0.92 0.79 96 1001.2
20260506210501 43 336 0.0 1.7 0.05 0.98 0.79 97 1001.4
20260506210002 43 336 0.0 1.7 0.04 0.97 0.78 96 1001.6
20260506205502 43 343 0.0 3.5 0.04 0.97 0.78 96 1001.7
20260506205002 43 336 1.7 3.5 0.04 0.97 0.78 96 1001.8
20260506204503 43 355 0.9 3.5 0.03 0.96 0.77 96 1001.7
20260506204001 43 329 0.9 3.5 0.03 0.96 0.77 96 1001.7
20260506203501 43 349 0.0 2.6 0.03 0.96 0.77 96 1001.6
20260506203001 43 301 0.0 2.6 0.02 0.95 0.76 96 1001.6
20260506202501 43 311 0.9 1.7 0.02 0.95 0.76 96 1001.6
20260506202001 43 300 0.0 2.6 0.02 0.94 0.75 96 1001.5
20260506201500 43 278 0.9 2.6 0.02 0.94 0.75 96 1001.6
20260506201059 43 322 0.0 2.6 0.02 0.94 0.75 96 1001.5
20260506200559 43 298 0.0 3.5 0.01 0.93 0.74 96 1001.5
20260506200146 43 328 1.7 3.5 0.01 0.98 0.74 96 1001.5
20260506195559 43 343 0.0 4.3 0.02 0.98 0.74 96 1001.5
20260506195100 43 350 0.9 4.3 0.02 0.98 0.74 96 1001.4
20260506194700 43 313 0.9 5.2 0.02 0.98 0.74 96 1001.4
20260506194059 43 305 1.7 5.2 0.03 0.98 0.74 96 1001.2
20260506193558 43 18 0.9 3.5 0.03 0.98 0.74 96 1001.2
20260506193057 43 5 0.9 3.5 0.03 0.98 0.74 96 1001.1
20260506192557 43 325 0.9 4.3 0.03 0.98 0.74 97 1001.2
20260506192058 43 321 1.7 4.3 0.02 0.97 0.73 97 1001.1
20260506191600 43 312 1.7 3.5 0.02 0.97 0.73 96 1001.1
20260506191058 43 10 0.9 2.6 0.02 0.97 0.73 96 1000.9
20260506190557 43 39 0.0 2.6 0.03 0.97 0.73 97 1001.0
20260506190056 43 41 0.9 2.6 0.03 1.21 0.73 97 1001.2
20260506185556 42 85 0.9 1.7 0.02 1.20 0.72 96 1001.2
20260506185055 42 202 0.0 1.7 0.02 1.20 0.72 96 1001.3
20260506184555 42 340 0.0 1.7 0.01 1.19 0.71 96 1001.4
20260506184053 42 337 0.0 4.3 0.02 1.19 0.71 96 1001.5
20260506183553 42 244 0.9 4.3 0.02 1.19 0.71 96 1001.6
20260506183053 42 332 1.7 3.5 0.02 1.19 0.71 96 1001.7
20260506182552 42 346 0.9 3.5 0.03 1.19 0.71 96 1001.5
20260506182055 42 48 0.9 3.5 0.04 1.19 0.71 96 1001.6
20260506181552 42 355 0.9 3.5 0.04 1.19 0.71 96 1001.7
20260506181053 42 295 0.9 4.3 0.05 1.19 0.71 96 1001.7
20260506180552 42 342 1.7 4.3 0.04 1.18 0.70 96 1001.9
20260506180100 42 338 1.7 3.5 0.04 1.18 0.70 96 1001.7
20260506175553 42 288 0.9 4.3 0.04 1.18 0.70 96 1001.8
20260506175050 42 5 0.9 4.3 0.05 1.18 0.70 96 1001.8
20260506174550 42 263 1.7 4.3 0.05 1.18 0.70 96 1001.9
20260506174050 42 298 1.7 4.3 0.05 1.17 0.69 96 1001.9
20260506173550 42 321 0.9 4.3 0.05 1.17 0.69 96 1001.8
20260506173106 42 13 1.7 4.3 0.06 1.17 0.69 96 1001.9
20260506172553 42 306 1.7 3.5 0.06 1.15 0.68 96 1001.9
20260506172051 42 330 1.7 3.5 0.05 1.14 0.67 96 1001.9
20260506171558 42 355 0.9 3.5 0.06 1.14 0.67 96 1001.8
20260506171050 42 323 1.7 2.6 0.06 1.13 0.66 96 1001.8
20260506170550 42 245 0.9 3.5 0.06 1.13 0.66 96 1001.9
20260506170049 42 355 0.9 3.5 0.07 1.13 0.66 96 1001.9
20260506165549 42 5 0.9 4.3 0.08 1.13 0.66 96 1002.0
20260506165049 42 344 0.9 4.3 0.08 1.12 0.65 96 1002.0
20260506164549 42 344 0.9 2.6 0.09 1.12 0.65 96 1002.0
20260506164051 42 306 0.9 2.6 0.09 1.12 0.64 96 1002.1
20260506163548 42 355 0.9 4.3 0.10 1.12 0.64 96 1002.1
20260506163050 42 329 0.9 4.3 0.09 1.11 0.63 96 1002.1
20260506162551 42 323 1.7 4.3 0.10 1.10 0.62 96 1002.1
20260506162051 42 360 0.9 4.3 0.11 1.10 0.62 95 1002.3